Дата Пункты Температура Давл., мм. Влажн., % Ветер Погодные явления
Воздуха Воды Направл. Скорость
26.08.19 06:00 Одесса 21.0 23.0 763 53 Пн 0 06 ГОДИН
26.08.19 03:00 Одесса 23.0 23.0 763 55 Пн 2 03 ГОДИНИ
25.08.19 09:00 Одесса 26.0 24.0 762 47 Пн 1 21 ГОДИНУ
25.08.19 06:00 Одесса 31.0 24.0 761 36 Пн 0 18 ГОДИН
25.08.19 03:00 Одесса 31.0 24.0 762 35 Пд-С 2 15 ГОДИН
25.08.19 12:00 Одесса 29.0 23.0 763 44 Пн-С 2 12 ГОДИН
25.08.19 09:00 Одесса 27.0 23.0 762 56 Пн 1 09 ГОДИН
25.08.19 06:00 Одесса 23.0 22.0 762 68 Пн 1 06 ГОДИН
25.08.19 03:00 Одесса 24.0 22.0 761 68 Пн 1 03 ГОДИНИ
24.08.19 09:00 Одесса 28.0 23.0 761 41 Пн 2 21 ГОДИНУ
24.08.19 06:00 Одесса 29.0 24.0 761 50 Пн-С 3 18 ГОДИН
24.08.19 03:00 Одесса 31.0 24.0 761 42 С 2 15 ГОДИН
24.08.19 12:00 Одесса 31.0 23.0 762 45 Пн 2 12 ГОДИН
24.08.19 09:00 Одесса 25.0 23.0 762 61 Пн-З 2 09 ГОДИН
24.08.19 06:00 Одесса 22.0 23.0 762 71 Пн-З 2 06 ГОДИН
24.08.19 03:00 Одесса 24.0 23.0 762 63 Пн-З 1 03 ГОДИНИ
23.08.19 09:00 Одесса 30.0 23.0 762 45 Пн-З 2 21 ГОДИНУ
23.08.19 06:00 Одесса 31.0 23.0 761 39 Пн 0 18 ГОДИН
23.08.19 03:00 Одесса 33.0 23.0 761 38 Пн 2 15 ГОДИН
23.08.19 12:00 Одесса 29.0 23.0 762 55 Пн 2 12 ГОДИН
Количество строк
1 2 3 4 5 6 7 8 9 10
Page 1 of 523